Location: Pueblo of Sandia Village
(35.2550°N, 106.5731°W)
Time: 00:14:27
(UTC+00:00)

Daily predictions for brighter satellites

Satellite Brightness Start Highest point End
(mag) Time Altitude Azimuth Time Altitude Azimuth Time Altitude Azimuth
Meteor 1-27 Rocket 4.4 01:13:06 10° NNE 01:17:58 31° ENE 01:22:50 10° SE
Cosmos 292 Rocket 3.7 01:14:42 10° SSW 01:19:26 82° ESE 01:24:12 10° NNE
Helios 1A Rocket 4.5 01:17:16 10° ESE 01:19:52 16° ENE 01:22:27 10° NNE
SL-4 R/B 4.0 01:17:47 10° WNW 01:20:27 19° NNW 01:23:01 10° NNE
YAOGAN 1 3.3 01:19:03 10° SE 01:22:52 31° ENE 01:26:41 10° N
Cosmos 1331 Rocket 4.2 01:17:52 10° S 01:22:59 53° ESE 01:28:06 10° NNE
Cosmos 2297 Rocket 2.8 01:17:25 10° NNW 01:23:00 65° WSW 01:28:34 10° S
SOZ 4.3 01:20:48 10° SW 01:23:02 64° SE 01:27:29 10° NE
Aureole 1 Rocket 4.1 01:16:16 10° N 01:23:15 55° ENE 01:28:34 10° SE
Cosmos 220 Rocket 4.1 01:19:47 10° S 01:23:52 53° ESE 01:27:59 10° NNE
Cosmos 1500 Rocket 3.6 01:19:59 10° S 01:24:19 85° W 01:28:40 10° N
CZ-2C R/B 3.3 01:18:50 10° SSE 01:24:39 79° ENE 01:30:23 10° N
Okean-O 3.3 01:21:56 10° SE 01:25:53 33° ENE 01:29:51 10° N
CZ-4B R/B 1.9 01:23:01 10° N 01:25:59 58° WNW 01:28:58 10° SSW
COSMOS 2455 3.8 01:21:04 10° N 01:26:04 26° NE 01:31:01 10° ESE
SEDSat Delta rocket 4.0 01:21:20 10° W 01:26:12 46° SSW 01:30:28 10° ESE
CZ-2C R/B 3.5 01:23:04 10° NE 01:27:47 29° E 01:32:23 10° SSE
COSMO-SKYMED 1 3.2 01:24:25 10° N 01:28:41 60° WNW 01:32:57 10° SSW
Lacrosse 5 rocket 2.5 01:26:17 10° NNW 01:30:01 27° NE 01:33:36 10° E
Meteor 2-6 Rocket 4.3 01:24:41 10° N 01:30:24 87° W 01:35:55 10° S
Cosmos 1515 Rocket 4.1 01:26:14 10° NNW 01:30:37 66° W 01:35:00 10° S
Sich 1 3.4 01:28:52 10° SSE 01:32:57 41° E 01:37:04 10° NNE
Gbstr 26 Del rocket 3.5 01:29:11 10° WSW 01:33:15 62° NW 01:38:10 10° NE
Cosmos 1709 Rocket 4.3 01:32:11 10° SSW 01:38:17 72° W 01:44:28 10° N
Cosmos 1818 3.5 01:36:07 10° NNW 01:41:36 72° ENE 01:47:01 10° SE
Cosmos 2219 4.5 01:37:26 10° NW 01:42:45 45° WSW 01:48:03 10° S
ERS-2 2.0 01:41:51 10° NNE 01:45:29 72° ESE 01:49:06 10° S
Cosmos 2181 Rocket 4.0 01:42:14 10° N 01:48:41 69° E 01:55:01 10° SSE
SJ-11-01 4.3 01:44:42 10° SSE 01:49:16 59° ENE 01:53:52 10° N
Cosmos 1980 Rocket 2.5 01:43:44 10° SSW 01:49:21 70° WNW 01:55:02 10° NNE
Cosmos 1633 Rocket 3.8 01:45:44 10° SSE 01:49:35 31° E 01:53:28 10° NNE
Cosmos 44 3.7 01:44:16 10° NNW 01:49:36 53° ENE 01:54:48 10° SE
Cosmos 1707 Rocket 4.3 01:46:55 10° NNE 01:50:49 30° ENE 01:54:40 10° SE
Cosmos 1302 Rocket 4.2 01:46:22 10° S 01:51:18 46° ESE 01:56:15 10° NNE
RESURS DK-1 3.7 01:47:28 10° NW 01:51:23 42° WSW 01:55:17 10° S
SAR-Lupe-4 3.4 01:49:51 10° NNE 01:53:26 83° ESE 01:57:00 10° S
Timation 1 Rocket 4.4 01:52:32 10° NNW 01:58:32 84° WSW 02:04:28 10° SSE
Cosmos 2322 Rocket 3.0 01:54:35 10° SSE 01:59:10 27° ESE 02:03:06 13° NE
Cosmos 1867 4.3 01:56:38 10° SW 02:01:56 55° WNW 02:07:19 10° NNE
CZ-4 R/B 1.6 01:59:35 10° S 02:03:23 67° WSW 02:07:14 10° NNW
ERBS 2.4 02:00:50 10° SSW 02:04:03 52° SE 02:05:28 28° ENE
Atlas Centaur 2 4.3 02:01:57 10° WSW 02:06:45 21° SSW 02:10:50 10° SSE
Cosmos 2082 4.0 02:02:35 10° NNW 02:08:09 68° WSW 02:13:42 10° S
Cosmos 1741 Rocket 4.4 02:03:23 10° NNW 02:08:40 67° WSW 02:13:53 10° S
Meteor 1-20 Rocket 4.0 02:08:05 10° S 02:13:31 71° E 02:18:57 10° NNE
HJ-1C 3.4 02:15:06 10° S 02:18:25 79° WSW 02:21:45 10° NNW
SL-16 R/B 2.3 02:13:11 10° S 02:18:39 53° ESE 02:24:09 10° NNE
Cosmos 1689 Rocket 4.3 02:17:41 10° NNW 02:20:09 26° WNW 02:22:37 10° SW
Abrixas rocket 2.0 02:18:36 10° WSW 02:21:02 56° NW 02:21:02 56° NW
Cosmos 1470 Rocket 4.0 02:17:43 10° SSE 02:21:53 40° E 02:26:04 10° NNE
Ariane Rocket 4.3 02:24:09 23° NE 02:24:09 23° NE 02:27:07 10° NNE
SeaSat 1 4.4 02:22:09 10° N 02:26:21 29° WNW 02:30:32 10° WSW
Cosmos 1271 Rocket 2.4 02:26:28 10° N 02:30:11 76° E 02:31:40 35° SSE
Cosmos 1602 3.5 02:27:06 10° S 02:30:57 83° E 02:34:50 10° N
DMSP B5D2-2 3.9 02:27:42 10° NNE 02:32:57 78° ESE 02:38:08 10° S
Cosmos 1461 3.3 02:31:40 10° SW 02:36:20 74° WNW 02:39:40 19° NNE
Cosmos 2327 Rocket 4.4 02:30:58 10° S 02:37:21 80° E 02:43:42 10° N
GP-B 3.8 02:39:48 37° NNE 02:39:48 37° NNE 02:42:43 10° N
SL-08 RB Rocket 3.8 02:34:31 10° S 02:38:59 75° WSW 02:43:30 10° NNW
Cosmos 2263 Rocket 2.0 02:35:41 10° NNW 02:41:13 66° ENE 02:43:04 41° SE
Cosmos 2154 Rocket 3.9 02:38:08 10° S 02:44:23 89° WNW 02:50:37 10° N
H-2A R/B 3.9 02:40:55 10° SSW 02:45:42 33° W 02:50:34 10° NNW
Meteor 1-14 Rocket 4.1 02:40:24 10° S 02:45:57 63° E 02:51:28 10° NNE
Nadezhda 3 Rocket 3.9 02:44:14 10° N 02:50:35 74° E 02:56:56 10° SSE
ARGOS 4.3 02:45:44 10° S 02:50:51 44° W 02:56:01 10° NNW
Cosmos 1862 Rocket 3.5 02:47:41 10° N 02:51:50 74° NNE 02:51:50 74° NNE
MetOp-A 4.0 02:58:57 44° SSE 03:00:44 90° WSW 03:06:07 10° NNW
CZ-2C R/B 4.4 03:03:10 10° N 03:07:59 32° WNW 03:12:42 10° SW
Lacrosse 5 rocket 2.8 03:05:22 10° WNW 03:09:12 33° WSW 03:09:24 32° SW
BREEZE-M DEB (TANK) 3.9 03:04:49 10° WSW 03:09:30 31° NW 03:09:30 31° NW
Meteor 1-18 Rocket 4.2 03:03:36 10° N 03:09:34 87° W 03:11:04 53° S
COSMOS 2455 3.8 03:06:27 10° NW 03:12:09 46° WSW 03:16:06 19° S
Cosmos 2360 Rocket 3.7 03:11:58 10° SSW 03:14:08 24° S 03:14:08 24° S
Cosmos 1992 Rocket 4.4 03:15:29 10° SSW 03:20:39 62° WNW 03:20:47 61° WNW
Cosmos 2341 Rocket 4.1 03:23:17 10° S 03:29:38 76° W 03:35:58 10° N
Cosmos 2322 Rocket 3.5 03:37:53 10° SW 03:42:59 35° WNW 03:45:08 26° NNW
Cosmos 2082 Rocket 4.1 10:37:26 24° NNE 10:37:26 24° NNE 10:39:38 10° NNE
Cosmos 1980 Rocket 3.8 10:44:25 26° NNE 10:46:12 32° ENE 10:51:13 10° ESE
ALOS 3.2 11:18:08 10° NNE 11:21:15 41° NNE 11:21:15 41° NNE
Cosmos 2369 4.3 11:26:10 45° S 11:26:10 45° S 11:30:02 10° SSE
Cosmos 1553 Rocket 4.2 11:19:59 10° S 11:26:21 73° E 11:32:42 10° N
Nadezhda 2 Rocket 4.4 11:23:47 10° N 11:30:12 87° W 11:36:38 10° S
ISS -0.8 11:35:04 12° NNE 11:35:04 12° NNE 11:35:22 10° NNE
CZ-3 R/B 4.3 11:17:42 10° SW 11:35:20 27° S 11:42:09 10° ESE
Cosmos 2221 3.8 11:31:58 10° SSE 11:36:04 41° E 11:40:12 10° NNE
Cosmos 292 Rocket 3.8 11:37:51 45° N 11:39:18 77° ENE 11:44:06 10° SSE
OAO 1 4.4 11:42:49 69° WSW 11:43:19 75° SSW 11:48:48 10° ESE
H-2A R/B 2.5 11:39:06 10° SSE 11:43:26 62° ENE 11:47:41 10° N
NOSS 2-2 (D) 3.9 11:44:25 46° ENE 11:44:25 46° ENE 11:47:05 10° NE
BREEZE-M DEB (TANK) 4.4 11:45:54 37° NW 11:45:54 37° NW 11:49:05 10° NNE
CZ-4B R/B 4.1 11:47:55 10° ESE 11:50:19 19° ENE 11:52:42 10° NNE
Cosmos 1331 Rocket 4.3 11:48:25 10° N 11:53:34 64° ENE 11:58:38 10° SSE
